FW1830 Dunedin FL US current weather conditions

sailwx.info

Wind from 340

Air temperature 15.6° C
Dewpoint 12.7° C

Last reported at 2019-Nov-14 06:00 UTC.
Time now 2019-Nov-14 06:23 UTC

Location: N 28°00' W 082°47'.
View on Google Maps.

See reports from other nearby stations

  
Tides and Currents Weather Stations Pressure Air Temp Water Temp Dewpoint Dewpoint Depression Visibility Wind Speed Wind Dir Waves Ship Positions
date/time (UTC)wind fromknots sea level pressurealtimeterstation pressurevisibilityair tempwater tempwave heightnotes
2019-Nov-14 06:00 340 15.6
2019-Nov-14 05:45 204 15.6
2019-Nov-14 05:30 101 16.1
2019-Nov-14 05:15 131 16.1
2019-Nov-14 05:00 065 16.1
2019-Nov-14 04:45 115 16.1
2019-Nov-14 04:30 079 16.1
2019-Nov-14 04:15 123 0 gusting 2 16.1
2019-Nov-14 04:00 022 0 gusting 2 16.1
2019-Nov-14 03:45 139 16.1
2019-Nov-14 03:30 132 16.1
2019-Nov-14 03:16 134 16.1
2019-Nov-14 03:01 144 0 gusting 2 16.1
2019-Nov-14 02:47 146 16.1
2019-Nov-14 02:32 135 16.7
2019-Nov-14 02:17 114 0 gusting 4 16.7
2019-Nov-14 02:01 132 0 gusting 6 16.7
2019-Nov-14 01:47 158 16.7
2019-Nov-14 01:32 104 0 gusting 3 16.7
2019-Nov-14 01:17 009 0 gusting 6 17.2
2019-Nov-14 01:02 131 0 gusting 8 17.2
2019-Nov-14 00:47 078 0 gusting 7 17.2
2019-Nov-14 00:31 177 17.2
2019-Nov-14 00:16 144 0 gusting 7 17.8
2019-Nov-14 00:01 121 1 gusting 5 17.8
2019-Nov-13 23:46 101 17.8
2019-Nov-13 23:31 082 1 gusting 6 17.8
2019-Nov-13 23:16 081 1 gusting 6 17.8
2019-Nov-13 23:02 169 1 gusting 7 18.3
2019-Nov-13 22:46 160 1 gusting 7 18.3
2019-Nov-13 22:33 142 0 gusting 7 18.3
2019-Nov-13 22:17 047 1 gusting 6 18.9
2019-Nov-13 22:02 142 0 gusting 7 18.9
2019-Nov-13 21:46 069 0 gusting 10 18.9
2019-Nov-13 21:31 103 0 gusting 6 19.4
2019-Nov-13 21:16 115 1 gusting 8 19.4
2019-Nov-13 21:02 130 0 gusting 4 19.4
2019-Nov-13 20:46 082 2 gusting 9 19.4
2019-Nov-13 20:31 016 0 gusting 6 20.0
2019-Nov-13 20:17 066 1 gusting 4 20.0
2019-Nov-13 20:01 057 0 gusting 6 20.0
2019-Nov-13 19:46 146 1 gusting 8 20.6
2019-Nov-13 19:31 030 0 gusting 4 21.1
2019-Nov-13 19:16 039 1 gusting 5 20.6
2019-Nov-13 19:01 071 0 gusting 6 20.6
2019-Nov-13 18:46 089 0 gusting 5 20.0
2019-Nov-13 18:31 134 2 gusting 10 20.0
2019-Nov-13 18:16 134 2 gusting 10 19.4
2019-Nov-13 18:01 113 1 gusting 5 18.9
2019-Nov-13 17:45 065 0 gusting 7 18.9
2019-Nov-13 17:30 052 18.9
2019-Nov-13 17:16 140 1 gusting 13 18.9
2019-Nov-13 17:00 157 0 gusting 6 18.3
2019-Nov-13 16:45 117 1 gusting 6 17.8
2019-Nov-13 16:30 017 1 gusting 6 17.2
2019-Nov-13 16:15 144 0 gusting 6 16.7
2019-Nov-13 16:00 296 1 gusting 6 16.7
2019-Nov-13 15:45 017 1 gusting 7 16.1
2019-Nov-13 15:30 051 1 gusting 5 16.1
2019-Nov-13 15:15 049 0 gusting 3 15.6
2019-Nov-13 15:00 059 0 gusting 4 15.0
2019-Nov-13 14:45 326 1 gusting 5 15.0
2019-Nov-13 14:30 018 1 gusting 5 14.4
2019-Nov-13 14:17 005 2 gusting 6 13.9
2019-Nov-13 14:02 346 1 gusting 4 13.3
2019-Nov-13 13:47 014 1 gusting 9 13.3
2019-Nov-13 13:31 041 0 gusting 4 12.8
2019-Nov-13 13:17 015 2 gusting 7 12.8
2019-Nov-13 13:02 026 0 gusting 4 12.2
2019-Nov-13 12:46 043 1 gusting 6 12.2
2019-Nov-13 12:31 037 0 gusting 4 12.2
2019-Nov-13 12:16 005 1 gusting 6 12.2
2019-Nov-13 12:01 321 0 gusting 4 12.2
2019-Nov-13 11:45 015 0 gusting 3 12.2
2019-Nov-13 11:31 028 1 gusting 6 12.2
2019-Nov-13 11:16 033 0 gusting 5 12.2
2019-Nov-13 11:00 318 0 gusting 2 12.2
2019-Nov-13 10:46 067 0 gusting 4 12.2
2019-Nov-13 10:31 014 0 gusting 6 12.2
2019-Nov-13 10:16 035 0 gusting 5 12.2
2019-Nov-13 10:00 022 0 gusting 3 12.2
2019-Nov-13 09:45 085 12.2
2019-Nov-13 09:30 057 0 gusting 6 12.2
2019-Nov-13 09:15 040 1 gusting 5 12.2
2019-Nov-13 09:00 094 0 gusting 6 12.2
2019-Nov-13 08:45 055 0 gusting 4 12.8
2019-Nov-13 08:30 136 12.8
2019-Nov-13 08:15 030 0 gusting 4 13.3
2019-Nov-13 08:00 038 1 gusting 3 13.3
2019-Nov-13 07:31 059 2 gusting 5 13.9
2019-Nov-13 07:17 024 1 gusting 5 14.4
2019-Nov-13 07:01 064 0 gusting 8 15.0
2019-Nov-13 06:47 339 2 gusting 10 15.0
2019-Nov-13 06:32 015 1 gusting 8 15.6
2019-Nov-13 06:16 338 2 gusting 4 16.1
2019-Nov-13 06:01 024 2 gusting 6 16.1
2019-Nov-13 05:46 005 1 gusting 7 16.1
2019-Nov-13 05:31 005 0 gusting 7 16.7
2019-Nov-13 05:16 012 1 gusting 11 16.7
2019-Nov-13 05:00 335 2 gusting 14 16.7
2019-Nov-13 04:45 032 3 gusting 11 17.2
2019-Nov-13 04:31 289 4 gusting 11 17.8
2019-Nov-13 04:16 017 2 gusting 10 18.3
2019-Nov-13 04:01 355 5 gusting 13 18.3
2019-Nov-13 03:46 331 3 gusting 10 18.9
2019-Nov-13 03:30 323 1 gusting 10 19.4
2019-Nov-13 03:15 343 3 gusting 7 20.0
2019-Nov-13 03:01 338 2 gusting 7 20.0
2019-Nov-13 02:46 289 1 gusting 8 20.6
2019-Nov-13 02:30 021 3 gusting 8 20.6
2019-Nov-13 02:15 348 3 gusting 8 20.6
2019-Nov-13 02:00 288 2 gusting 10 20.6
2019-Nov-13 01:46 344 3 gusting 11 20.6
2019-Nov-13 01:31 355 3 gusting 7 20.6
2019-Nov-13 01:15 334 4 gusting 11 20.6
2019-Nov-13 01:00 015 3 gusting 7 20.6
2019-Nov-13 00:45 342 1 gusting 6 20.6
2019-Nov-13 00:31 287 1 gusting 11 21.1
2019-Nov-13 00:15 317 1 gusting 9 21.1
2019-Nov-13 00:00 335 2 gusting 6 21.1
2019-Nov-12 23:45 340 0 gusting 7 21.7
2019-Nov-12 23:15 334 0 gusting 6 21.7
2019-Nov-12 23:00 329 0 gusting 8 21.7
2019-Nov-12 22:45 360 2 gusting 8 22.2
2019-Nov-12 22:30 355 3 gusting 6 22.8
2019-Nov-12 22:15 355 3 gusting 10 23.3
2019-Nov-12 22:00 304 3 gusting 9 25.6
2019-Nov-12 21:45 248 1 gusting 5 26.7
2019-Nov-12 21:30 300 2 gusting 6 26.7
2019-Nov-12 21:15 289 1 gusting 6 27.2
2019-Nov-12 21:00 231 1 gusting 6 27.2
2019-Nov-12 20:45 277 3 gusting 7 27.2
2019-Nov-12 20:30 234 2 gusting 6 27.2
2019-Nov-12 20:15 205 2 gusting 6 27.2
2019-Nov-12 20:01 274 3 gusting 6 27.2
2019-Nov-12 19:47 309 2 gusting 7 27.2
2019-Nov-12 19:33 248 3 gusting 7 27.8
2019-Nov-12 19:17 297 3 gusting 9 27.8
2019-Nov-12 19:01 234 2 gusting 7 27.8
2019-Nov-12 18:46 304 4 gusting 8 27.2
2019-Nov-12 18:31 254 3 gusting 8 27.2
2019-Nov-12 18:16 263 2 gusting 8 27.2
2019-Nov-12 18:01 292 2 gusting 8 26.7
2019-Nov-12 17:45 308 2 gusting 7 26.7
2019-Nov-12 17:31 255 3 gusting 7 26.7
2019-Nov-12 17:15 221 4 gusting 7 26.7
2019-Nov-12 17:01 250 2 gusting 6 26.7
2019-Nov-12 16:45 309 1 gusting 6 26.7
2019-Nov-12 16:30 270 2 gusting 6 26.7
2019-Nov-12 16:15 298 2 gusting 6 26.1
2019-Nov-12 16:00 236 2 gusting 6 25.6
2019-Nov-12 15:45 235 2 gusting 6 25.6
2019-Nov-12 15:30 254 3 gusting 6 25.0
2019-Nov-12 15:15 171 1 gusting 6 24.4
2019-Nov-12 15:00 231 2 gusting 5 23.3
2019-Nov-12 14:32 217 21.7
2019-Nov-12 14:01 184 20.6
2019-Nov-12 13:46 184 20.6
2019-Nov-12 13:31 092 20.0
2019-Nov-12 13:17 092 19.4
2019-Nov-12 13:01 346 18.3
2019-Nov-12 12:46 346 17.8
2019-Nov-12 12:31 346 17.2
2019-Nov-12 12:15 346 17.2
2019-Nov-12 12:00 346 17.2
2019-Nov-12 11:46 346 17.2
2019-Nov-12 11:30 346 17.2
2019-Nov-12 11:16 346 17.8
2019-Nov-12 11:00 346 17.8
2019-Nov-12 10:45 346 17.8
2019-Nov-12 10:30 346 17.8
2019-Nov-12 10:15 346 17.8
2019-Nov-12 10:01 346 17.8
2019-Nov-12 09:46 346 17.8
2019-Nov-12 09:30 346 17.8
2019-Nov-12 09:15 346 18.3
2019-Nov-12 09:00 346 18.3
2019-Nov-12 08:45 346 18.3
2019-Nov-12 08:30 346 18.3
2019-Nov-12 08:15 346 18.3
2019-Nov-12 08:00 346 18.3
2019-Nov-12 07:45 346 18.9
2019-Nov-12 07:30 346 18.9
2019-Nov-12 07:15 346 18.9
2019-Nov-12 07:00 346 18.9
2019-Nov-12 06:45 346 18.9
2019-Nov-12 06:31 346 18.9
2019-Nov-12 06:17 346 18.9
2019-Nov-12 06:02 346 18.9